Temp
82 84 84 86 85 86 87 89 86 87 88 85 83 83 82 81 79 76 75 74 72 71
82 82 83 84 84 86 86 89 88 88 87 84 82 83 82 80 78 77 74 74 72 70
83 82 82 84 85 85 88 88 89 88 85 83 81 82 81 78 78 76 73 73 72 70
83 83 83 84 85 86 86 87 87 86 82 81 79 80 80 79 78 75 73 74 72 71
84 84 84 83 84 86 85 86 86 86 81 79 79 80 79 78 77 75 74 74 73 71
85 84 84 84 84 86 86 86 87 84 81 80 79 79 79 79 78 77 76 73 72 70
85 85 86 85 85 85 86 85 85 83 81 80 80 79 79 77 76 75 74 73 72 71
85 85 85 85 85 85 85 86 84 81 80 81 79 80 77 76 75 73 72 72 72 68
84 84 84 85 84 84 84 83 81 81 80 77 78 67 71 75 74 73 72 70 70 66
84 84 84 84 84 83 82 82 81 80 78 75 73 64 66 70 74 72 72 71 70 71
85 84 84 84 83 83 83 81 80 78 76 75 72 62 63 67 72 72 72 72 71 70
86 84 84 82 82 83 83 81 79 77 75 73 69 59 60 64 71 70 70 71 69 68
86 84 83 83 82 83 82 79 78 75 74 70 68 57 58 62 72 69 70 69 63 63
86 84 84 83 84 83 79 76 75 73 72 71 69 62 56 57 67 71 70 69 66 63
MSLP
1014.54 1014.76 1014.80 1014.84 1014.96 1014.81 1014.67 1014.55 1014.90 1014.97 1014.89 1015.28 1015.61 1015.95 1016.18 1016.63 1016.92 1017.29 1017.37 1017.53 1017.64 1017.57
1014.01 1014.44 1014.64 1014.60 1014.69 1014.66 1014.65 1014.66 1014.59 1014.76 1014.97 1015.33 1015.57 1015.89 1016.38 1016.60 1016.82 1017.21 1017.30 1017.54 1017.79 1017.78
1013.32 1013.85 1014.19 1014.27 1014.18 1014.26 1014.25 1014.41 1014.50 1014.81 1015.11 1015.51 1015.97 1016.21 1016.51 1016.68 1016.91 1017.14 1017.59 1017.73 1017.91 1018.09
1012.55 1013.15 1013.62 1013.86 1013.85 1013.87 1014.04 1014.27 1014.49 1014.74 1015.04 1015.53 1015.98 1016.31 1016.45 1016.71 1016.86 1017.15 1017.61 1017.77 1017.99 1018.08
1011.80 1012.37 1012.81 1013.13 1013.28 1013.49 1013.73 1013.98 1014.34 1014.63 1015.05 1015.49 1015.89 1016.28 1016.48 1016.61 1016.72 1016.98 1017.31 1017.61 1017.97 1018.13
1010.90 1011.46 1011.88 1012.28 1012.62 1012.88 1013.30 1013.79 1014.09 1014.44 1014.81 1015.23 1015.67 1016.07 1016.46 1016.55 1016.78 1016.95 1017.22 1017.53 1017.84 1018.09
1010.03 1010.48 1011.01 1011.53 1011.88 1012.44 1012.94 1013.13 1013.24 1013.74 1014.31 1014.76 1015.21 1015.76 1016.20 1016.64 1016.91 1017.05 1017.34 1017.61 1017.99 1018.07
1009.13 1009.71 1010.36 1010.83 1011.22 1011.80 1012.03 1012.32 1012.52 1013.11 1013.50 1014.32 1015.11 1015.43 1015.93 1016.49 1016.83 1017.14 1017.36 1017.57 1017.81 1018.05
1008.48 1009.05 1009.64 1010.07 1010.57 1010.99 1011.16 1010.77 1011.80 1012.41 1013.18 1013.91 1014.79 1015.13 1015.51 1016.15 1016.57 1016.94 1017.15 1017.45 1017.64 1017.91
1007.72 1008.35 1008.89 1009.31 1009.76 1010.10 1010.45 1011.05 1011.74 1012.37 1012.95 1013.83 1014.75 1015.09 1015.40 1015.87 1016.36 1016.75 1016.98 1017.13 1017.45 1017.59
1006.86 1007.49 1008.15 1008.58 1008.96 1009.44 1009.87 1010.60 1011.36 1012.19 1012.85 1013.64 1014.56 1015.03 1015.49 1015.94 1016.37 1016.64 1016.69 1016.91 1017.25 1017.43
1005.85 1006.59 1007.28 1007.72 1008.15 1008.58 1009.24 1010.10 1010.82 1011.73 1012.63 1013.39 1014.29 1014.95 1015.44 1015.92 1016.28 1016.41 1016.69 1016.87 1017.05 1017.35
1004.79 1005.50 1006.13 1006.69 1007.20 1007.70 1008.41 1009.47 1010.44 1011.37 1012.29 1013.07 1014.01 1014.70 1015.25 1015.72 1015.84 1016.02 1016.38 1016.67 1017.16 1017.58
1003.75 1004.40 1004.98 1005.69 1006.36 1007.11 1008.16 1009.29 1010.12 1010.98 1011.93 1012.77 1013.62 1014.64 1015.21 1015.50 1015.72 1015.53 1015.83 1016.21 1016.63 1017.25
Wind_Speed
10 6 5 4 4 4 3 2 6 4 2 4 5 3 2 1 3 4 2 4 3 4
11 10 8 8 7 5 4 4 4 3 3 5 5 2 1 2 4 3 3 3 5 4
12 12 10 6 6 7 4 6 2 3 6 5 4 3 2 3 3 3 4 3 3 3
13 12 11 10 8 6 5 4 4 5 7 7 6 4 3 1 4 4 3 1 3 2
13 13 13 11 11 9 8 7 6 5 7 6 6 5 4 5 4 5 5 4 1 3
14 14 14 13 12 9 8 6 7 7 6 7 6 6 4 2 2 2 3 4 2 1
16 15 14 12 12 9 7 8 8 9 8 7 6 5 5 4 2 3 4 3 1 2
15 14 13 12 10 10 10 10 10 11 9 8 7 7 6 5 5 4 5 4 4 6
15 13 13 11 12 11 13 16 12 12 11 10 7 6 12 6 5 6 5 5 4 7
14 15 14 13 12 14 13 9 10 11 11 9 6 6 10 8 3 5 5 5 4 4
16 16 15 14 14 14 13 12 11 10 10 10 7 10 9 8 3 3 4 4 4 2
17 16 16 16 16 14 13 12 12 11 11 10 8 11 10 8 6 6 5 4 3 3
17 17 18 17 17 14 12 12 11 11 10 10 9 11 11 9 6 8 6 5 6 5
18 18 18 16 14 13 13 12 12 11 10 10 10 11 13 11 5 4 6 7 8 6
Wind_Direction
205 221 230 216 242 252 243 357 145 149 183 104 102 109 87 127 49 81 51 53 19 321
194 207 213 217 212 240 257 295 255 118 163 117 130 127 103 108 92 7 359 109 37 357
196 197 223 246 211 217 222 208 150 239 129 129 131 141 228 155 142 100 15 67 57 16
192 199 206 219 233 214 222 232 217 217 138 140 155 183 192 133 165 126 130 199 75 43
187 196 202 210 216 214 212 206 206 181 150 148 165 190 211 220 129 176 196 135 78 51
190 195 203 203 212 212 202 201 212 159 163 157 179 183 214 241 193 174 105 103 142 93
196 197 200 205 200 201 189 193 201 173 166 178 172 182 182 180 203 144 123 119 84 91
198 195 200 197 201 180 193 198 181 173 169 169 183 195 172 172 176 182 161 155 203 118
195 195 196 199 191 183 190 210 169 177 168 168 182 154 141 174 174 180 186 176 198 172
192 195 196 196 187 193 193 190 183 176 167 162 168 152 129 135 215 174 193 185 189 262
194 194 192 193 197 195 194 184 177 173 169 172 160 155 155 156 232 193 168 185 188 189
195 192 190 194 197 196 190 183 177 169 175 176 155 159 167 160 186 181 187 190 70 70
194 192 193 192 195 195 184 179 169 167 174 178 156 172 186 183 203 169 188 168 142 145
195 194 193 191 191 185 169 168 168 166 172 180 165 186 200 196 229 198 192 187 173 166